Helicity
26 83 100 47 53 114 56 153 189 224 246 240 256 246 205 177 159 141 108 108 92 96 90 81 77 70 69 73 62 85 116 132 105 119 128 129 127 130 123 115 123 125 111
60 25 101 90 33 76 89 215 211 91 157 212 211 214 187 180 153 145 118 118 106 102 92 75 71 69 73 78 70 71 93 112 92 92 113 110 110 129 138 124 133 145 122
82 38 45 122 71 88 104 130 212 147 197 208 254 277 305 289 228 183 154 113 111 98 99 79 77 61 64 79 72 83 86 91 113 113 110 128 98 116 119 131 122 138 124
71 15 8 104 122 76 124 119 221 176 172 218 247 233 265 255 213 160 153 138 117 101 94 85 84 62 66 80 68 77 94 99 102 119 141 152 131 126 122 109 116 111 118
96 40 8 57 132 114 135 158 162 180 244 283 310 272 291 319 259 235 199 171 145 134 97 87 84 74 75 90 71 91 104 108 116 117 125 141 153 141 128 114 122 123 110
65 40 25 93 132 186 160 199 178 225 240 284 218 281 306 223 214 205 212 185 166 128 106 93 92 91 80 65 76 92 107 121 129 152 139 127 126 124 123 119 109 101 76
22 6 48 129 138 128 162 231 221 259 276 317 312 264 357 238 175 165 151 138 139 126 102 93 87 86 80 85 90 101 118 122 142 119 127 118 118 96 91 100 101 108 95
59 -5 33 79 78 65 130 181 200 223 241 276 278 273 218 375 206 185 153 141 130 146 88 93 92 88 88 93 87 96 144 133 128 155 134 112 99 81 72 86 100 96 101
109 25 27 53 48 63 100 186 217 226 226 233 279 263 284 380 668 327 176 211 168 161 159 99 87 81 94 77 94 124 108 128 132 134 115 89 87 86 86 95 102 100 98
99 58 12 51 84 97 148 191 219 237 242 242 292 260 237 249 363 314 180 250 219 144 139 139 122 111 117 136 133 132 134 140 113 100 109 97 84 96 102 108 115 127 152
146 104 50 42 76 134 164 203 221 245 249 250 272 257 271 316 429 465 185 154 159 109 87 90 94 114 114 109 136 153 133 129 108 99 100 101 92 104 115 121 128 139 159
82 88 62 43 64 80 101 141 173 215 233 237 285 249 322 346 350 298 180 90 103 116 106 118 121 132 134 132 137 147 128 112 102 95 99 103 103 121 122 120 125 138 162
47 49 67 74 60 66 97 116 143 178 198 240 283 276 285 263 259 265 284 154 123 119 140 127 128 149 139 145 133 113 105 101 95 95 102 102 116 120 111 115 151 156 151
38 45 57 65 92 117 84 60 145 201 236 303 270 299 249 213 204 187 153 159 144 166 168 146 142 143 126 125 109 101 94 90 87 91 100 99 108 116 137 141 136 131 127
9 15 25 41 78 150 262 185 216 273 279 330 364 324 302 250 252 206 175 196 184 176 165 157 159 131 122 89 88 88 80 81 94 96 94 106 129 162 145 130 118 128 133
4 12 39 91 91 99 164 257 263 246 304 335 325 283 255 256 218 189 197 206 184 178 167 139 123 120 93 87 88 75 79 94 90 96 102 109 136 125 118 117 149 156 147
-15 14 12 105 156 106 86 155 219 310 330 328 295 253 206 191 164 165 169 195 179 158 171 132 112 99 71 87 98 105 83 78 82 89 105 132 130 111 109 128 146 117 111
30 -17 -39 -78 -3 128 176 185 175 187 239 271 237 169 153 155 167 174 169 149 139 147 126 105 93 98 72 82 103 104 74 80 85 107 122 106 95 110 131 136 120 106 95
19 35 32 22 18 -65 -39 58 151 183 151 114 81 90 122 145 153 131 150 133 151 136 110 84 87 93 88 102 107 90 71 90 116 113 102 107 111 102 105 131 110 89 88
-1 35 36 35 31 -0 -1 -32 -17 14 13 39 80 118 122 147 130 129 131 125 132 123 98 104 92 112 128 109 86 84 83 107 93 98 113 117 110 90 98 116 110 84 67
-14 -5 8 35 17 20 34 34 35 53 44 100 116 110 133 154 135 124 125 123 117 116 114 108 89 96 97 93 121 119 93 87 110 109 106 100 91 89 91 88 89 62 60
20 8 23 27 22 25 69 64 74 59 92 124 133 127 139 116 126 144 108 104 105 110 95 99 96 79 86 113 111 107 110 119 128 106 96 89 74 85 87 78 52 46 63
37 21 30 31 12 16 60 109 65 96 127 145 145 150 156 142 116 117 114 116 101 102 87 69 74 91 96 93 87 94 120 126 116 91 91 79 80 82 79 68 60 62 66
49 36 43 45 40 27 52 99 95 111 150 165 149 133 137 123 110 100 82 101 99 80 76 91 97 87 77 79 94 98 107 100 85 93 86 78 82 85 73 73 60 58 58
40 42 57 60 62 49 83 89 100 119 147 139 118 122 123 122 122 117 93 91 73 74 84 84 80 69 70 80 113 122 108 92 71 107 81 79 87 89 88 85 67 73 74
90 61 72 86 61 66 84 92 108 132 152 151 134 124 136 133 128 126 126 100 81 89 101 89 74 66 87 122 125 117 115 97 93 106 83 81 84 77 80 77 65 72 69
Wind_Speed
83 84 84 76 70 62 68 71 67 57 56 55 50 46 42 36 33 29 26 20 18 14 14 16 17 17 18 19 20 23 25 25 23 26 30 33 33 33 33 34 36 40 43
76 82 83 80 75 73 68 58 62 68 49 51 47 43 39 38 35 30 29 24 21 17 16 15 18 18 20 19 20 23 24 26 25 28 29 36 37 36 35 34 36 40 45
78 81 78 82 76 75 72 60 58 62 45 45 43 40 37 35 37 34 29 28 23 20 18 18 18 20 22 22 23 23 25 25 30 29 32 41 44 37 38 38 36 42 49
72 79 75 72 78 78 76 72 53 47 48 46 47 48 44 45 42 34 30 28 25 23 21 20 18 22 23 22 23 24 25 26 27 32 37 39 37 41 44 39 39 44 51
62 67 70 64 66 66 72 68 61 50 42 45 38 46 45 37 36 34 30 25 24 23 21 20 20 21 23 23 24 26 27 28 28 33 36 39 41 44 45 49 46 49 52
60 61 59 50 50 52 58 58 64 50 43 41 31 25 37 33 33 33 32 29 25 20 19 20 22 20 20 21 23 25 29 30 31 35 37 39 43 45 47 52 54 58 60
57 55 47 34 32 43 49 53 55 52 44 45 42 30 21 28 29 35 35 30 29 27 22 20 18 18 20 22 23 26 28 31 33 35 39 41 42 42 46 52 58 63 66
51 42 35 25 27 34 38 46 52 53 50 47 45 35 31 27 30 34 32 27 28 24 18 18 20 18 20 20 22 26 31 31 33 37 39 42 44 48 51 56 63 75 71
45 35 30 37 25 23 27 33 43 48 49 50 50 49 38 40 27 38 39 30 19 25 25 20 19 16 18 18 22 28 28 31 34 36 39 42 47 51 55 57 60 70 86
41 35 31 33 30 25 25 27 32 37 42 45 47 47 46 39 26 23 27 24 25 18 17 19 20 20 23 25 23 24 27 33 35 39 42 46 50 56 59 61 63 66 74
40 36 33 27 21 19 17 19 23 26 31 35 45 45 42 39 21 14 13 20 23 21 16 6 10 15 17 19 21 26 28 32 37 42 46 50 55 60 63 63 66 69 71
40 36 32 25 21 16 12 10 15 19 25 29 35 40 33 26 28 23 6 3 6 7 9 13 12 17 21 21 23 26 31 34 40 46 51 57 58 63 64 67 70 73 72
39 37 33 29 26 20 14 15 18 17 20 26 27 37 31 27 17 16 21 8 5 4 7 9 13 19 19 21 26 30 32 38 44 50 54 58 61 64 66 70 74 74 73
37 37 37 36 36 33 22 14 26 26 21 23 25 31 31 25 20 8 8 7 2 4 10 13 17 19 21 25 28 32 38 43 47 50 54 58 60 66 71 73 73 71 75
31 33 36 37 35 36 19 20 18 28 24 22 21 22 21 18 14 13 7 2 8 11 13 15 18 20 24 26 30 35 41 45 49 54 56 60 62 68 70 69 70 74 80
24 27 33 37 34 30 23 7 14 29 27 21 20 19 18 15 12 8 4 3 5 10 12 14 17 21 25 28 32 38 43 47 53 58 60 63 65 68 68 66 70 70 79
19 21 26 25 32 21 15 8 4 11 12 16 16 18 15 13 9 7 4 5 7 10 12 16 19 24 26 29 35 41 45 51 55 59 63 66 66 67 66 67 67 67 69
37 43 49 47 35 31 17 13 8 10 12 14 16 14 13 11 7 4 5 5 7 13 15 18 23 27 30 30 37 43 48 54 57 62 64 64 66 68 69 67 70 68 70
38 39 41 29 49 42 35 23 8 6 11 12 12 10 12 11 10 10 7 12 11 14 18 22 25 29 34 36 41 47 51 57 61 60 64 64 68 67 67 70 71 71 67
34 39 39 43 46 43 25 17 6 14 8 7 7 8 6 10 7 11 9 10 14 17 21 25 29 34 39 42 44 47 54 59 60 61 64 66 65 65 69 70 69 70 69
23 29 30 36 37 37 28 33 30 5 23 13 9 12 14 16 13 9 11 14 17 20 24 29 33 38 41 45 48 51 55 59 62 66 65 65 65 68 67 65 65 64 64
29 31 30 30 31 29 30 29 21 19 18 19 19 16 18 15 15 16 15 16 19 22 27 32 36 40 44 48 50 53 56 59 63 66 62 63 66 66 65 63 63 62 59
24 26 27 28 26 26 27 28 24 24 22 20 17 16 16 16 16 16 16 19 22 26 30 34 40 45 48 50 50 51 56 60 62 59 60 64 66 65 64 62 60 56 55
18 20 22 24 24 25 24 25 24 23 22 21 19 19 18 17 16 17 19 21 25 29 34 40 44 48 49 50 51 53 55 57 58 57 60 63 64 63 60 58 55 52 52
14 16 18 19 19 21 21 22 22 23 21 20 18 16 15 15 17 20 22 25 29 31 36 40 43 48 51 51 52 55 57 57 61 58 62 65 64 64 61 57 53 52 53
10 12 15 15 17 18 18 18 18 18 17 15 13 13 13 15 18 20 25 29 29 32 36 38 42 44 47 51 52 55 56 58 59 60 63 63 62 61 58 55 53 52 54
Wind_Direction
266 261 256 254 251 248 243 247 246 224 211 216 215 222 226 231 237 240 244 246 254 263 281 297 310 322 328 337 342 346 355 354 358 1 360 359 1 1 4 357 357 354 353
270 262 256 251 247 244 243 243 239 230 207 214 218 224 224 232 236 238 243 247 253 262 275 290 303 317 322 332 335 337 343 348 347 347 349 341 344 346 349 349 348 349 347
268 262 258 249 246 243 241 241 240 231 217 215 215 219 224 228 235 238 242 247 252 260 273 287 299 308 316 327 332 333 333 342 345 346 342 336 332 340 339 338 340 339 339
276 261 257 253 244 243 239 240 245 244 240 218 222 217 221 226 236 236 240 245 251 260 270 281 297 302 312 326 336 334 338 341 341 347 348 345 343 336 334 337 337 334 334
284 268 256 257 248 244 242 241 241 237 242 226 233 234 232 232 232 235 239 245 258 264 271 282 293 304 310 327 330 333 339 340 342 339 339 341 341 337 333 330 334 334 333
288 273 263 260 251 247 240 240 240 242 240 242 232 230 233 232 229 237 242 249 259 268 277 287 296 304 318 324 331 343 340 344 346 345 340 335 334 335 334 331 331 330 331
291 278 265 257 252 252 239 236 238 243 242 239 237 231 227 246 241 237 239 243 252 262 277 288 301 314 321 324 339 339 345 345 348 343 340 342 343 342 339 335 332 330 330
301 288 270 259 260 256 243 237 237 243 242 240 239 237 236 233 256 243 244 253 255 262 278 293 300 313 322 344 346 346 346 344 340 342 343 342 341 340 338 335 332 328 329
309 299 277 260 268 259 249 241 239 240 241 241 238 240 242 239 245 255 251 253 262 264 272 287 296 325 326 348 341 337 350 353 347 350 344 343 342 340 339 337 335 331 327
316 310 291 275 274 272 263 256 248 238 237 237 234 237 238 243 230 240 245 255 261 267 273 291 301 318 326 335 339 12 1 351 347 345 344 344 341 339 339 337 337 335 330
310 305 300 299 293 285 277 263 246 234 230 231 229 231 236 239 234 212 231 250 258 272 295 344 11 32 22 24 20 7 1 352 348 346 344 342 341 339 339 340 338 336 334
304 300 302 307 303 305 300 274 244 231 225 221 220 225 225 225 228 230 168 204 300 318 314 318 27 37 35 19 11 2 354 350 345 344 342 340 341 340 341 340 339 337 337
301 307 313 303 300 320 317 282 254 235 220 211 208 221 221 216 211 239 241 246 73 335 20 48 43 26 28 14 3 359 355 351 346 344 343 343 343 342 342 341 339 339 338
300 299 310 306 302 310 303 296 254 234 217 206 205 220 221 223 219 182 204 211 72 20 42 25 24 22 9 0 3 356 351 347 347 348 347 346 346 344 342 341 340 341 340
272 285 298 309 329 312 343 294 233 225 211 185 183 197 198 195 178 201 187 157 46 43 49 36 21 9 8 3 356 352 349 349 349 349 348 348 347 345 344 343 344 343 342
239 281 313 348 5 325 286 320 264 226 209 190 164 171 172 173 186 192 186 68 14 39 28 8 7 8 4 356 356 355 352 352 349 348 348 347 347 345 346 346 346 347 343
221 302 315 334 4 326 335 307 239 208 181 170 165 156 159 165 168 183 140 55 32 33 358 5 8 3 358 358 357 357 354 351 350 348 347 346 347 347 347 348 349 348 349
142 115 79 36 34 23 11 46 71 109 155 147 161 145 147 145 145 145 86 61 20 38 28 8 360 356 357 2 360 356 354 351 350 349 348 347 347 348 348 349 348 348 349
136 130 104 157 85 49 47 48 69 114 104 118 156 140 128 126 111 98 72 64 30 9 357 359 4 2 360 359 356 353 351 350 349 350 349 349 348 350 350 349 347 348 351
174 124 112 105 96 72 40 37 63 71 99 154 164 108 133 102 105 82 61 6 7 9 12 8 2 0 356 354 354 354 351 349 350 350 350 351 351 351 350 349 350 349 350
357 34 34 77 78 77 59 74 74 48 77 79 85 84 81 82 74 45 31 29 29 18 6 2 359 357 355 353 353 352 351 350 350 348 350 352 352 351 352 353 352 350 351
55 55 45 49 57 61 73 75 65 66 71 77 80 78 77 69 57 53 39 29 21 11 4 0 358 356 354 353 352 352 352 351 349 348 352 353 353 353 354 353 352 353 356
45 45 51 52 39 59 74 80 77 82 83 81 76 69 58 53 49 43 31 15 6 359 353 352 349 349 350 351 353 353 353 352 351 353 354 353 353 354 354 354 356 359 0
44 38 42 44 42 57 63 75 82 84 85 84 79 73 66 53 34 21 13 7 360 354 350 347 346 346 348 351 352 352 352 353 354 355 354 354 354 355 356 358 1 3 3
60 58 48 41 38 51 62 75 85 90 85 81 74 62 44 36 23 10 5 1 357 355 350 348 349 347 347 349 351 351 351 353 353 353 352 353 354 355 357 360 2 3 2
72 54 37 43 50 58 70 76 81 87 85 74 60 47 35 23 14 7 359 359 360 357 357 356 353 352 352 351 352 352 352 352 352 352 352 353 354 355 357 359 360 1 1